This is the latest recevied weather packets stored in our database for station/object K5NCO. If no packets are shown the sender has not sent any weather packets the latest 10 day(s).
| Time | Temp. | Humidity | Pressure | Rain* | Wind** | Luminosity | Snow |
|---|---|---|---|---|---|---|---|
| 1777827380 | 23.89° C | 43% | 1024.4 hPa | 0 mm | - | 681 W/m² | - |
| 1777827076 | 23.33° C | 44% | 1024.3 hPa | 0 mm | - | 671 W/m² | - |
| 1777826773 | 23.89° C | 46% | 1024.4 hPa | 0 mm | - | 663 W/m² | - |
| 1777826470 | 23.33° C | 43% | 1024.4 hPa | 0 mm | - | 653 W/m² | - |
| 1777826167 | 23.33° C | 43% | 1024.5 hPa | 0 mm | - | 643 W/m² | - |
| 1777825864 | 23.33° C | 42% | 1024.5 hPa | 0 mm | - | 633 W/m² | - |
| 1777825561 | 23.33° C | 44% | 1024.6 hPa | 0 mm | - | 626 W/m² | - |
| 1777825259 | 22.78° C | 43% | 1024.5 hPa | 0 mm | - | 615 W/m² | - |
| 1777824956 | 22.78° C | 43% | 1024.8 hPa | 0 mm | - | 603 W/m² | - |
| 1777824651 | 22.78° C | 48% | 1024.9 hPa | 0 mm | - | 590 W/m² | - |
| 1777824349 | 22.78° C | 47% | 1024.8 hPa | 0 mm | - | 584 W/m² | - |
| 1777824045 | 22.78° C | 45% | 1024.8 hPa | 0 mm | - | 572 W/m² | - |
| 1777823741 | 22.78° C | 45% | 1024.7 hPa | 0 mm | - | 560 W/m² | - |
| 1777823439 | 22.22° C | 47% | 1024.8 hPa | 0 mm | - | 548 W/m² | - |
| 1777823136 | 22.22° C | 47% | 1024.8 hPa | 0 mm | - | 534 W/m² | - |
| 1777822833 | 22.22° C | 50% | 1024.8 hPa | 0 mm | - | 523 W/m² | - |
| 1777822531 | 22.22° C | 48% | 1024.8 hPa | 0 mm | - | 511 W/m² | - |
| 1777822228 | 22.22° C | 51% | 1024.8 hPa | 0 mm | - | 497 W/m² | - |
| 1777821926 | 21.67° C | 53% | 1024.7 hPa | 0 mm | - | 483 W/m² | - |
| 1777821624 | 21.67° C | 53% | 1024.7 hPa | 0 mm | - | 470 W/m² | - |
| 1777821322 | 21.67° C | 55% | 1024.7 hPa | 0 mm | - | 454 W/m² | - |
| 1777821018 | 21.67° C | 54% | 1024.8 hPa | 0 mm | - | 442 W/m² | - |
| 1777820715 | 21.11° C | 56% | 1024.6 hPa | 0 mm | - | 427 W/m² | - |
| 1777820411 | 21.67° C | 55% | 1024.7 hPa | 0 mm | - | 413 W/m² | - |
| 1777820109 | 21.11° C | 56% | 1024.7 hPa | 0 mm | - | 398 W/m² | - |
* Rain latest hour (hover to see other rain measurements)
** Current wind speed in m/s (hover to see current wind gust speed)